Location: Ehrke Reservoir
(40.0279°N, 99.6641°W)
Time: 11:32:24
(UTC+00:00)

DELTA 2 R/B (1) - Pass Details

Date: 20 January 2020
Orbit: 790 x 803 km, 39.6° (Epoch: 27 February)

Event Time Altitude Azimuth Distance (km) Brightness Sun altitude
Rises 01:37:57 0° 258° (WSW) 3,290 8.3 -21.9°
Reaches altitude 10° 01:40:25 10° 258° (WSW) 2,363 7.2 -22.4°
Maximum altitude 01:46:00 81° 172° (S) 811 3.5 -23.5°
Enters shadow 01:47:03 60° 97° (E) 913 3.5 -23.7°
